Погода в Старой Станице

Россия / Ростовская область     48°20′57″N   40°16′52″E
темп.,
°C
ветер,
м/с
пор.,
м/с
влажн.,
%
обл.,
%
осадки,
мм/ч
давл.,
гПа
погр.,
м
13 мая, чт
чт1300:00+10вюв488255 0.0 1015129
03:00+9вюв348662 0.0 101563
06:00+11вюв378292 0.0 1015163
09:00+17юв46604 0.0 1015543
12:00+21юв56575 0.0 10141171
15:00+22юв5555100 0.0 10141534
18:00+21вюв3669100 0.0 1014211
21:00+17юв2280100 0.0 101520
14 мая, пт
пт1400:00+15вюв338516 0.0 101423
03:00+14в33875 0.0 101439
06:00+15вюв311835 0.0 1013220
09:00+21юв6115948 0.0 1013507
12:00+25юв6851100 0.0 1013793
15:00+27юв67495 0.0 1012930
18:00+24юв48665 0.0 1011418
21:00+19ююв228490 0.0 101113
15 мая, сб
сб1500:00+18ююв228832 0.0 101118
03:00+17ююв33894 0.0 101128
06:00+17ююз238899 0.0 1013103
09:00+22всв327539 0.0 1013442
12:00+26св21597 0.0 10131059
15:00+27св21515 0.0 10131628
18:00+26всв23615 0.0 1012273
21:00+20с22776 0.3 101214
16 мая, вс
вс1600:00+18с228267 0.0 101212
03:00+17с2284100 0.0 101218
06:00+16св2377100 0.0 101274
09:00+20юв5852100 0.0 1012400
12:00+25юв6943100 0.0 1011906
15:00+27вюв79415 0.0 10101477
18:00+25в4953100 0.0 1008281
21:00+20в51562100 0.0 1008314
17 мая, пн
пн1700:00+19вюв5155016 0.0 1008340
03:00+16в4145880 0.0 1008284
06:00+16в4176160 0.0 1008389
09:00+22вюв71651100 0.0 1008783
12:00+26юв9144091 0.0 10081306
15:00+27юв61142100 0.0 10081928
18:00+26ююз225699 0.0 100742
21:00+20ююз116617 0.0 100811